This is the latest recevied weather packets stored in our database for station/object SQ6CZH-3. If no packets are shown the sender has not sent any weather packets the latest 10 day(s).
| Time | Temp. | Humidity | Pressure | Rain* | Wind** | Luminosity | Snow |
|---|---|---|---|---|---|---|---|
| 1778451203 | 15.56° C | 69% | 1007.9 hPa | 0 mm | - | - | - |
| 1778450601 | 15.56° C | 69% | 1007.9 hPa | 0 mm | - | - | - |
| 1778448192 | 15.56° C | 68% | 1008.1 hPa | 0 mm | - | - | - |
| 1778447590 | 16.11° C | 68% | 1008.3 hPa | 0 mm | - | - | - |
| 1778445786 | 16.67° C | 68% | 1008.5 hPa | 0 mm | - | - | - |
| 1778444581 | 16.67° C | 68% | 1008.7 hPa | 0 mm | - | - | - |
| 1778437359 | 18.89° C | 67% | 1009.3 hPa | 0 mm | - | - | - |
| 1778436173 | 19.44° C | 67% | 1009.3 hPa | 0 mm | - | - | - |
| 1778434948 | 19.44° C | 67% | 1009.4 hPa | 0 mm | - | - | - |
| 1778434347 | 19.44° C | 67% | 1009.4 hPa | 0 mm | - | - | - |
| 1778433745 | 19.44° C | 67% | 1009.5 hPa | 0 mm | - | - | - |
| 1778431959 | 19.44° C | 67% | 1009.8 hPa | 0 mm | - | - | - |
| 1778428928 | 20° C | 67% | 1010.4 hPa | 0 mm | - | - | - |
| 1778426520 | 19.44° C | 67% | 1010.9 hPa | 0 mm | - | - | - |
| 1778424113 | 19.44° C | 67% | 1011.4 hPa | 0 mm | - | - | - |
| 1778418112 | 19.44° C | 67% | 1012.9 hPa | 0 mm | - | - | - |
| 1778417490 | 19.44° C | 67% | 1013.2 hPa | 0 mm | - | - | - |
| 1778416286 | 20° C | 67% | 1013.3 hPa | 0 mm | - | - | - |
| 1778412073 | 21.11° C | 68% | 1014.3 hPa | 0 mm | - | - | - |
| 1778410267 | 19.44° C | 68% | 1014.8 hPa | 0 mm | - | - | - |
| 1778408460 | 18.89° C | 68% | 1015.2 hPa | 0 mm | - | - | - |
| 1778404287 | 17.78° C | 69% | 1016 hPa | 0 mm | - | - | - |
| 1778401839 | 16.11° C | 70% | 1016.5 hPa | 0 mm | - | - | - |
| 1778400636 | 15.56° C | 71% | 1016.8 hPa | 0 mm | - | - | - |
| 1778397023 | 12.78° C | 72% | 1017.2 hPa | 0 mm | - | - | - |
* Rain latest hour (hover to see other rain measurements)
** Current wind speed in m/s (hover to see current wind gust speed)